Hourly Data Report for May 07, 2018

TORONTO CITY
ONTARIO
Current Station Operator: ECCC - MSC

43°40'00.000" N
79°24'00.000" W
112.50 m
6158355
71508
XTO

Download Data

Hourly Data (May 2018)
Hourly Data Report for May 7, 2018
TIME
LST
Temp Definition
°C
Dew Point Definition
°C
Rel Hum Definition
%
Precip. Amount Definition
mm

Wind Dir Definition
10's deg

Wind Spd Definition
km/h
Visibility Definition
km
Stn Press Definition
kPa
Hmdx Definition


Wind Chill Definition


Weather Definition


00:00 14.7 2.1 43 0.0 LegendMM LegendMM   100.41     LegendNANA
01:00 14.1 1.4 42 0.0 LegendMM LegendMM   100.45     LegendNANA
02:00 13.1 1.2 44 0.0 LegendMM LegendMM   100.46     LegendNANA
03:00 12.7 1.2 45 0.0 LegendMM LegendMM   100.54     LegendNANA
04:00 11.6 0.5 47 0.0 LegendMM LegendMM   100.61     LegendNANA
05:00 11.2 0.1 46 0.0 LegendMM LegendMM   100.66     LegendNANA
06:00 11.4 -0.9 42 0.0 LegendMM LegendMM   100.74     LegendNANA
07:00 12.6 -2.3 35 0.0 LegendMM LegendMM   100.81     LegendNANA
08:00 13.8 -2.9 31 0.0 LegendMM LegendMM   100.86     LegendNANA
09:00 14.9 -1.4 33 0.0 LegendMM LegendMM   100.92     LegendNANA
10:00 12.6 -3.6 32 0.0 LegendMM LegendMM   100.95     LegendNANA
11:00 13.7 -2.1 34 0.0 LegendMM LegendMM   100.96     LegendNANA
12:00 13.4 -4.1 29 0.0 LegendMM LegendMM   100.97     LegendNANA
13:00 14.1 -4.7 27 0.0 LegendMM LegendMM   100.93     LegendNANA
14:00 14.6 -5.3 25 0.0 LegendMM LegendMM   100.91     LegendNANA
15:00 15.6 -4.6 25 0.0 LegendMM LegendMM   100.88     LegendNANA
16:00 15.2 -4.7 25 0.0 LegendMM LegendMM   100.88     LegendNANA
17:00 15.5 -4.1 26 0.0 LegendMM LegendMM   100.86     LegendNANA
18:00 14.9 -3.7 28 0.0 LegendMM LegendMM   100.84     LegendNANA
19:00 13.7 -4.0 29 0.0 LegendMM LegendMM   100.84     LegendNANA
20:00 13.4 -4.4 29 0.0 LegendMM LegendMM   100.85     LegendNANA
21:00 12.8 -4.3 30 0.0 LegendMM LegendMM   100.87     LegendNANA
22:00 11.8 -3.8 33 0.0 LegendMM LegendMM   100.89     LegendNANA
23:00 11.6 -3.2 35 0.0 LegendMM LegendMM   100.90     LegendNANA

Notes on Data Quality.

Legend

  • E = Estimated
  • M = Missing
  • NA = Not Available*
  • [empty] = Indicates an unobserved value
Date modified: